START_TIME,STEP,MOV.,H8,t_acc.,H43,t_acc.,M25,t_acc.,H9,t_acc.
1979-03-10 21:00:27.030 ,1,0,0.,12.0,0.,12.0,0.,12.0,0.,12.0
1979-03-10 21:00:39.030 ,1,0,0.,12.0,0.,12.0,0.,12.0,0.,12.0
1979-03-10 21:00:51.030 ,0,0,0.,12.0,0.,12.0,0.,12.0,0.,12.0
1979-03-10 21:01:03.030 ,0,0,0.,12.0,0.,12.0,0.,12.0,0.,12.0
1979-03-10 21:01:15.030 ,0,0,0.,12.0,0.,12.0,0.,12.0,0.,12.0
1979-03-10 21:01:27.030 ,0,0,0.,12.0,0.,12.0,0.,12.0,0.,12.0
1979-03-10 21:01:39.030 ,1,0,0.,12.0,0.,12.0,0.,12.0,0.,12.0
1979-03-10 21:01:51.030 ,1,0,0.,12.0,0.,12.0,0.,12.0,0.,12.0
1979-03-10 21:02:03.030 ,2,0,0.,12.0,0.,12.0,0.,12.0,0.,12.0
1979-03-10 21:02:15.030 ,2,0,0.,12.0,0.,12.0,0.,12.0,0.,12.0
1979-03-10 21:02:27.030 ,3,0,0.,12.0,0.,12.0,0.,12.0,0.,12.0
1979-03-10 21:02:39.030 ,3,0,0.,12.0,0.,12.0,0.,12.0,0.,12.0
1979-03-10 21:02:51.030 ,4,0,0.,12.0,0.,12.0,0.,12.0,0.,12.0
1979-03-10 21:03:03.030 ,4,0,0.,12.0,0.,12.0,0.,12.0,0.,12.0
1979-03-10 21:03:15.030 ,5,0,0.,12.0,0.,12.0,0.,12.0,0.,12.0
1979-03-10 21:03:27.030 ,5,0,0.,12.0,0.,12.0,0.,12.0,0.,12.0
1979-03-10 21:03:39.030 ,6,0,0.,12.0,0.,12.0,0.,12.0,0.,12.0
1979-03-10 21:03:51.030 ,6,0,0.,12.0,0.,12.0,0.,12.0,0.,12.0
1979-03-10 21:04:03.030 ,7,0,0.,12.0,0.,12.0,0.,12.0,0.,12.0
1979-03-10 21:04:15.030 ,7,0,0.,12.0,0.,12.0,0.,12.0,0.,12.0
1979-03-10 21:04:27.030 ,7,0,0.,12.0,0.,12.0,0.,12.0,0.,12.0
1979-03-10 21:04:39.030 ,7,0,0.,12.0,0.,12.0,0.,12.0,0.,12.0
1979-03-10 21:04:51.030 ,6,0,0.,12.0,0.,12.0,0.,12.0,0.,12.0
1979-03-10 21:05:03.030 ,6,0,0.,12.0,0.,12.0,0.,12.0,0.,12.0
1979-03-10 21:05:15.030 ,5,0,0.,12.0,0.,12.0,0.,12.0,0.,12.0
1979-03-10 21:05:27.030 ,5,0,0.,12.0,0.,12.0,0.,12.0,0.,12.0
1979-03-10 21:05:39.030 ,4,0,0.,12.0,0.,12.0,0.,12.0,0.,12.0
1979-03-10 21:05:51.030 ,4,0,0.,12.0,0.,12.0,0.,12.0,0.,12.0
1979-03-10 21:06:03.030 ,3,0,0.,12.0,0.,12.0,0.,12.0,0.,12.0
1979-03-10 21:06:15.030 ,3,0,0.,12.0,0.,12.0,0.,12.0,0.,12.0
1979-03-10 21:06:27.030 ,2,0,0.,12.0,0.,12.0,0.,12.0,0.,12.0
1979-03-10 21:06:39.030 ,2,0,0.,12.0,0.,12.0,0.,12.0,0.,12.0
1979-03-10 21:06:51.030 ,1,0,0.,12.0,0.,12.0,0.,12.0,0.,12.0
1979-03-10 21:07:03.030 ,1,0,0.,12.0,0.,12.0,0.,12.0,0.,12.0
1979-03-10 21:07:15.030 ,0,0,0.,12.0,0.,12.0,0.,12.0,0.,12.0
1979-03-10 21:07:27.030 ,0,0,0.,12.0,0.,12.0,0.,12.0,0.,12.0
1979-03-10 21:07:39.030 ,0,0,0.,12.0,0.,12.0,0.,12.0,0.,12.0
1979-03-10 21:07:51.030 ,0,0,0.,12.0,0.,12.0,0.,12.0,0.,12.0
1979-03-10 21:08:03.030 ,1,0,0.,12.0,0.,12.0,0.,12.0,0.,12.0
1979-03-10 21:08:15.030 ,1,0,0.,12.0,0.,12.0,0.,12.0,0.,12.0
1979-03-10 21:08:27.030 ,2,0,0.,12.0,0.,12.0,0.,12.0,0.,12.0
1979-03-10 21:08:39.030 ,2,0,0.,12.0,0.,12.0,0.,12.0,0.,12.0
1979-03-10 21:08:51.030 ,3,0,0.,12.0,0.,12.0,0.,12.0,0.,12.0
1979-03-10 21:09:03.030 ,3,0,0.,12.0,0.,12.0,0.,12.0,0.,12.0
1979-03-10 21:09:15.030 ,4,0,0.,12.0,0.,12.0,0.,12.0,0.,12.0
1979-03-10 21:09:27.030 ,4,0,0.,12.0,0.,12.0,0.,12.0,0.,12.0
1979-03-10 21:09:39.030 ,5,0,0.,12.0,0.,12.0,0.,12.0,0.,12.0
1979-03-10 21:09:51.030 ,5,0,0.,12.0,0.,12.0,0.,12.0,0.,12.0
1979-03-10 21:10:03.030 ,6,0,0.,12.0,0.,12.0,0.,12.0,0.,12.0
1979-03-10 21:10:15.030 ,6,0,0.,12.0,0.,12.0,0.,12.0,0.,12.0
1979-03-10 21:10:27.030 ,7,0,0.,12.0,0.,12.0,0.,12.0,0.,12.0
1979-03-10 21:10:39.030 ,7,0,0.,12.0,0.,12.0,0.,12.0,0.,12.0
1979-03-10 21:10:51.030 ,7,0,0.,12.0,0.,12.0,0.,12.0,0.,12.0
1979-03-10 21:11:03.030 ,7,0,0.,12.0,0.,12.0,0.,12.0,0.,12.0
1979-03-10 21:11:15.030 ,6,0,0.,12.0,0.,12.0,0.,12.0,0.,12.0
1979-03-10 21:11:27.030 ,6,0,0.,12.0,0.,12.0,0.,12.0,0.,12.0
1979-03-10 21:11:39.030 ,5,0,0.,12.0,0.,12.0,0.,12.0,0.,12.0
1979-03-10 21:11:51.030 ,5,0,0.,12.0,0.,12.0,0.,12.0,0.,12.0
1979-03-10 21:12:03.030 ,4,0,0.,12.0,0.,12.0,0.,12.0,0.,12.0
1979-03-10 21:12:15.030 ,4,0,0.,12.0,0.,12.0,0.,12.0,0.,12.0
1979-03-10 21:12:27.030 ,3,0,0.,12.0,0.,12.0,0.,12.0,0.,12.0
1979-03-10 21:12:39.030 ,3,0,0.,12.0,0.,12.0,0.,12.0,0.,12.0
1979-03-10 21:12:51.030 ,2,0,0.,12.0,0.,12.0,0.,12.0,0.,12.0
1979-03-10 21:13:03.030 ,2,0,0.,12.0,0.,12.0,0.,12.0,0.,12.0
1979-03-10 21:13:15.030 ,1,0,0.,12.0,0.,12.0,0.,12.0,0.,12.0
1979-03-10 21:13:27.030 ,1,0,0.,12.0,0.,12.0,0.,12.0,0.,12.0
1979-03-10 21:13:39.030 ,0,0,0.,12.0,0.,12.0,0.,12.0,0.,12.0
1979-03-10 21:13:51.030 ,0,0,0.,12.0,0.,12.0,0.,12.0,0.,12.0
1979-03-10 21:14:03.030 ,0,0,0.,12.0,0.,12.0,0.,12.0,0.,12.0
1979-03-10 21:14:15.030 ,0,0,0.,12.0,0.,12.0,0.,12.0,0.,12.0
1979-03-10 21:14:27.030 ,1,0,0.,12.0,0.,12.0,0.,12.0,0.,12.0
1979-03-10 21:14:39.030 ,1,0,0.,12.0,0.,12.0,0.,12.0,0.,12.0
1979-03-10 21:14:51.030 ,2,0,0.,12.0,0.,12.0,0.,12.0,0.,12.0
1979-03-10 21:15:03.030 ,2,0,0.,12.0,0.,12.0,0.,12.0,0.,12.0
1979-03-10 21:15:15.030 ,3,0,0.,12.0,0.,12.0,0.,12.0,0.,12.0
1979-03-10 21:15:27.030 ,3,0,0.,12.0,0.,12.0,0.,12.0,0.,12.0
1979-03-10 21:15:39.030 ,4,0,0.,12.0,0.,12.0,0.,12.0,0.,12.0
1979-03-10 21:15:51.030 ,4,0,0.,12.0,0.,12.0,0.,12.0,0.,12.0
1979-03-10 21:16:03.030 ,5,0,0.,12.0,0.,12.0,0.,12.0,0.,12.0
1979-03-10 21:16:15.030 ,5,0,0.,12.0,0.,12.0,0.,12.0,0.,12.0
1979-03-10 21:16:27.030 ,6,0,0.,12.0,0.,12.0,0.,12.0,0.,12.0
1979-03-10 21:16:39.030 ,6,0,0.,12.0,0.,12.0,0.,12.0,0.,12.0
1979-03-10 21:16:51.030 ,7,0,0.,12.0,0.,12.0,0.,12.0,0.,12.0
1979-03-10 21:17:03.030 ,7,0,0.,12.0,0.,12.0,0.,12.0,0.,12.0
1979-03-10 21:17:15.030 ,7,0,0.,12.0,0.,12.0,0.,12.0,0.,12.0
1979-03-10 21:17:27.030 ,7,0,0.,12.0,0.,12.0,0.,12.0,0.,12.0
1979-03-10 21:17:39.030 ,6,0,0.,12.0,0.,12.0,0.,12.0,0.,12.0
1979-03-10 21:17:51.030 ,6,0,0.,12.0,0.,12.0,0.,12.0,0.,12.0
1979-03-10 21:18:03.030 ,5,0,0.,12.0,0.,12.0,0.,12.0,0.,12.0
1979-03-10 21:18:15.030 ,5,0,0.,12.0,0.,12.0,0.,12.0,0.,12.0
1979-03-10 21:18:27.030 ,4,0,0.,12.0,0.,12.0,0.,12.0,0.,12.0
1979-03-10 21:18:39.030 ,4,0,0.,12.0,0.,12.0,0.,12.0,0.,12.0
1979-03-10 21:18:51.030 ,3,0,0.,12.0,0.,12.0,0.,12.0,0.,12.0
1979-03-10 21:19:03.030 ,3,0,0.,12.0,0.,12.0,0.,12.0,0.,12.0
1979-03-10 21:19:15.030 ,2,0,0.,12.0,0.,12.0,0.,12.0,0.,12.0
1979-03-10 21:19:27.030 ,2,0,0.,12.0,0.,12.0,0.,12.0,0.,12.0
1979-03-10 21:19:39.030 ,1,0,0.,12.0,0.,12.0,0.,12.0,0.,12.0
1979-03-10 21:19:51.030 ,1,0,0.,12.0,0.,12.0,0.,12.0,0.,12.0
1979-03-10 21:20:03.030 ,0,0,0.,12.0,0.,12.0,0.,12.0,0.,12.0
1979-03-10 21:20:15.030 ,0,0,0.,12.0,0.,12.0,0.,12.0,0.,12.0
1979-03-10 21:20:27.030 ,0,0,0.,12.0,0.,12.0,0.,12.0,0.,12.0
1979-03-10 21:20:39.030 ,0,0,0.,12.0,0.,12.0,0.,12.0,0.,12.0
1979-03-10 21:20:51.030 ,1,0,0.,12.0,0.,12.0,0.,12.0,0.,12.0
1979-03-10 21:21:03.030 ,1,0,0.,12.0,0.,12.0,0.,12.0,0.,12.0
1979-03-10 21:21:15.030 ,2,0,0.,12.0,0.,12.0,0.,12.0,0.,12.0
1979-03-10 21:21:27.030 ,2,0,0.,12.0,0.,12.0,0.,12.0,0.,12.0
1979-03-10 21:21:39.030 ,3,0,0.,12.0,0.,12.0,0.,12.0,0.,12.0
1979-03-10 21:21:51.030 ,3,0,0.,12.0,0.,12.0,0.,12.0,0.,12.0
1979-03-10 21:22:03.030 ,4,0,0.,12.0,0.,12.0,0.,12.0,0.,12.0
1979-03-10 21:22:15.030 ,4,0,0.,12.0,0.,12.0,0.,12.0,0.,12.0
1979-03-10 21:22:27.030 ,5,0,0.,12.0,0.,12.0,0.,12.0,0.,12.0
1979-03-10 21:22:39.030 ,5,0,0.,12.0,0.,12.0,0.,12.0,0.,12.0
1979-03-10 21:22:51.030 ,6,0,0.,12.0,0.,12.0,0.,12.0,0.,12.0
1979-03-10 21:23:03.030 ,6,0,0.,12.0,0.,12.0,0.,12.0,0.,12.0
1979-03-10 21:23:15.030 ,7,0,0.,12.0,0.,12.0,0.,12.0,0.,12.0
1979-03-10 21:23:27.030 ,7,0,0.,12.0,0.,12.0,0.,12.0,0.,12.0
1979-03-10 21:23:39.030 ,7,0,0.,12.0,0.,12.0,0.,12.0,0.,12.0
1979-03-10 21:23:51.030 ,7,0,0.,12.0,0.,12.0,0.,12.0,0.,12.0
1979-03-10 21:24:03.030 ,6,0,0.,12.0,0.,12.0,0.,12.0,0.,12.0
1979-03-10 21:24:15.030 ,6,0,0.,12.0,0.,12.0,0.,12.0,0.,12.0
1979-03-10 21:24:27.030 ,5,0,0.,12.0,0.,12.0,0.,12.0,0.,12.0
1979-03-10 21:24:39.030 ,5,0,0.,12.0,0.,12.0,0.,12.0,0.,12.0
1979-03-10 21:24:51.030 ,4,0,0.,12.0,0.,12.0,0.,12.0,0.,12.0
1979-03-10 21:25:03.030 ,4,0,0.,12.0,0.,12.0,0.,12.0,0.,12.0
1979-03-10 21:25:15.030 ,3,0,0.,12.0,0.,12.0,0.,12.0,0.,12.0
1979-03-10 21:25:27.030 ,3,0,0.,12.0,0.,12.0,0.,12.0,0.,12.0
1979-03-10 21:25:39.030 ,2,0,0.,12.0,0.,12.0,0.,12.0,0.,12.0
1979-03-10 21:25:51.030 ,2,0,0.,12.0,0.,12.0,0.,12.0,0.,12.0
1979-03-10 21:26:03.030 ,1,0,0.,12.0,0.,12.0,0.,12.0,0.,12.0
1979-03-10 21:26:15.030 ,1,0,0.,12.0,0.,12.0,0.,12.0,0.,12.0
1979-03-10 21:26:27.030 ,0,0,0.,12.0,0.,12.0,0.,12.0,0.,12.0
1979-03-10 21:26:39.030 ,0,0,0.,12.0,0.,12.0,0.,12.0,0.,12.0
1979-03-10 21:26:51.030 ,0,0,0.,12.0,0.,12.0,0.,12.0,0.,12.0
1979-03-10 21:27:03.030 ,0,0,0.,12.0,0.,12.0,0.,12.0,0.,12.0
1979-03-10 21:27:15.030 ,1,0,0.,12.0,0.,12.0,0.,12.0,0.,12.0
1979-03-10 21:27:27.030 ,1,0,0.,12.0,0.,12.0,0.,12.0,0.,12.0
1979-03-10 21:27:39.030 ,2,0,0.,12.0,0.,12.0,0.,12.0,0.,12.0
1979-03-10 21:27:51.030 ,2,0,0.,12.0,0.,12.0,0.,12.0,0.,12.0
1979-03-10 21:28:03.030 ,3,0,0.,12.0,0.,12.0,0.,12.0,0.,12.0
1979-03-10 21:28:15.030 ,3,0,0.,12.0,0.,12.0,0.,12.0,0.,12.0
1979-03-10 21:28:27.030 ,4,0,0.,12.0,0.,12.0,0.,12.0,0.,12.0
1979-03-10 21:28:39.030 ,4,0,0.,12.0,0.,12.0,0.,12.0,0.,12.0
1979-03-10 21:28:51.030 ,5,0,0.,12.0,0.,12.0,0.,12.0,0.,12.0
1979-03-10 21:29:03.030 ,5,0,0.,12.0,0.,12.0,0.,12.0,0.,12.0
1979-03-10 21:29:15.030 ,6,0,0.,12.0,0.,12.0,0.,12.0,0.,12.0
1979-03-10 21:29:27.030 ,6,0,0.,12.0,0.,12.0,0.,12.0,0.,12.0
1979-03-10 21:29:39.030 ,7,0,0.,12.0,0.,12.0,0.,12.0,0.,12.0
1979-03-10 21:29:51.030 ,7,0,0.,12.0,0.,12.0,0.,12.0,0.,12.0
1979-03-10 21:30:03.030 ,7,0,0.,12.0,0.,12.0,0.,12.0,0.,12.0
1979-03-10 21:30:15.030 ,7,0,0.,12.0,0.,12.0,0.,12.0,0.,12.0
1979-03-10 21:30:27.030 ,6,0,0.,12.0,0.,12.0,0.,12.0,0.,12.0
1979-03-10 21:30:39.030 ,6,0,0.,12.0,0.,12.0,0.,12.0,0.,12.0
1979-03-10 21:30:51.030 ,5,0,0.,12.0,0.,12.0,0.,12.0,0.,12.0
1979-03-10 21:31:03.030 ,5,0,0.,12.0,0.,12.0,0.,12.0,0.,12.0
1979-03-10 21:31:15.030 ,4,0,0.,12.0,0.,12.0,0.,12.0,0.,12.0
1979-03-10 21:31:27.030 ,4,0,0.,12.0,0.,12.0,0.,12.0,0.,12.0
1979-03-10 21:31:39.030 ,3,0,0.,12.0,0.,12.0,0.,12.0,0.,12.0
1979-03-10 21:31:51.030 ,3,0,0.,12.0,0.,12.0,0.,12.0,0.,12.0
1979-03-10 21:32:03.030 ,2,0,0.,12.0,0.,12.0,0.,12.0,0.,12.0
1979-03-10 21:32:15.030 ,2,0,0.,12.0,0.,12.0,0.,12.0,0.,12.0
1979-03-10 21:32:27.030 ,1,0,0.,12.0,0.,12.0,0.,12.0,0.,12.0
1979-03-10 21:32:39.030 ,1,0,0.,12.0,0.,12.0,0.,12.0,0.,12.0
1979-03-10 21:32:51.030 ,0,0,0.,12.0,0.,12.0,0.,12.0,0.,12.0
1979-03-10 21:33:03.030 ,0,0,0.,12.0,0.,12.0,0.,12.0,0.,12.0
1979-03-10 21:33:15.030 ,0,0,0.,12.0,0.,12.0,0.,12.0,0.,12.0
1979-03-10 21:33:27.030 ,0,0,0.,12.0,0.,12.0,0.,12.0,0.,12.0
1979-03-10 21:33:39.030 ,1,0,0.,12.0,0.,12.0,0.,12.0,0.,12.0
1979-03-10 21:33:51.030 ,1,0,0.,12.0,0.,12.0,0.,12.0,0.,12.0
1979-03-10 21:34:03.030 ,2,0,0.,12.0,0.,12.0,0.,12.0,0.,12.0
1979-03-10 21:34:15.030 ,2,0,0.,12.0,0.,12.0,0.,12.0,0.,12.0
1979-03-10 21:34:27.030 ,3,0,0.,12.0,0.,12.0,0.,12.0,0.,12.0
1979-03-10 21:34:39.030 ,3,0,0.,12.0,0.,12.0,0.,12.0,0.,12.0
1979-03-10 21:34:51.030 ,4,0,0.,12.0,0.,12.0,0.,12.0,0.,12.0
1979-03-10 21:35:03.030 ,4,0,0.,12.0,0.,12.0,0.,12.0,0.,12.0
1979-03-10 21:35:15.030 ,5,0,0.,12.0,0.,12.0,0.,12.0,0.,12.0
1979-03-10 21:35:27.030 ,5,0,0.,12.0,0.,12.0,0.,12.0,0.,12.0
1979-03-10 21:35:39.030 ,6,0,0.,12.0,0.,12.0,0.,12.0,0.,12.0
1979-03-10 21:35:51.030 ,6,0,0.,12.0,0.,12.0,0.,12.0,0.,12.0
1979-03-10 21:36:03.030 ,7,0,0.,12.0,0.,12.0,0.,12.0,0.,12.0
1979-03-10 21:36:15.030 ,7,0,0.,12.0,0.,12.0,0.,12.0,0.,12.0
1979-03-10 21:36:27.030 ,7,0,0.,12.0,0.,12.0,0.,12.0,0.,12.0
1979-03-10 21:36:39.030 ,7,0,0.,12.0,0.,12.0,0.,12.0,0.,12.0
1979-03-10 21:36:51.030 ,6,0,0.,12.0,0.,12.0,0.,12.0,0.,12.0
1979-03-10 21:37:03.030 ,6,0,0.,12.0,0.,12.0,0.,12.0,0.,12.0
1979-03-10 21:37:15.030 ,5,0,0.,12.0,0.,12.0,0.,12.0,0.,12.0
1979-03-10 21:37:27.030 ,5,0,0.,12.0,0.,12.0,0.,12.0,0.,12.0
1979-03-10 21:37:39.030 ,4,0,0.,12.0,0.,12.0,0.,12.0,0.,12.0
1979-03-10 21:37:51.030 ,4,0,0.,12.0,0.,12.0,0.,12.0,0.,12.0
1979-03-10 21:38:03.030 ,3,0,0.,12.0,0.,12.0,0.,12.0,0.,12.0
1979-03-10 21:38:15.030 ,3,0,0.,12.0,0.,12.0,0.,12.0,0.,12.0
1979-03-10 21:38:27.030 ,2,0,0.,12.0,0.,12.0,0.,12.0,0.,12.0
1979-03-10 21:38:39.030 ,2,0,0.,12.0,0.,12.0,0.,12.0,0.,12.0
1979-03-10 21:38:51.030 ,1,0,0.,12.0,0.,12.0,0.,12.0,0.,12.0
1979-03-10 21:39:03.030 ,1,0,0.,12.0,0.,12.0,0.,12.0,0.,12.0
1979-03-10 21:39:15.030 ,0,0,0.,12.0,0.,12.0,0.,12.0,0.,12.0
1979-03-10 21:39:27.030 ,0,0,0.,12.0,0.,12.0,0.,12.0,0.,12.0
1979-03-10 21:39:39.030 ,0,0,0.,12.0,0.,12.0,0.,12.0,0.,12.0
1979-03-10 21:39:51.030 ,0,0,0.,12.0,0.,12.0,0.,12.0,0.,12.0
1979-03-10 21:40:03.030 ,1,0,0.,12.0,0.,12.0,0.,12.0,0.,12.0
1979-03-10 21:40:15.030 ,1,0,0.,12.0,0.,12.0,0.,12.0,0.,12.0
1979-03-10 21:40:27.030 ,2,0,0.,12.0,0.,12.0,0.,12.0,0.,12.0
1979-03-10 21:40:39.030 ,2,0,0.,12.0,0.,12.0,0.,12.0,0.,12.0
1979-03-10 21:40:51.030 ,3,0,0.,12.0,0.,12.0,0.,12.0,0.,12.0
1979-03-10 21:41:03.030 ,3,0,0.,12.0,0.,12.0,0.,12.0,0.,12.0
1979-03-10 21:41:15.030 ,4,0,0.,12.0,0.,12.0,0.,12.0,0.,12.0
1979-03-10 21:41:27.030 ,4,0,0.,12.0,0.,12.0,0.,12.0,0.,12.0
1979-03-10 21:41:39.030 ,5,0,0.,12.0,0.,12.0,0.,12.0,0.,12.0
1979-03-10 21:41:51.030 ,5,0,0.,12.0,0.,12.0,0.,12.0,0.,12.0
1979-03-10 21:42:03.030 ,6,0,0.,12.0,0.,12.0,0.,12.0,0.,12.0
1979-03-10 21:42:15.030 ,6,0,0.,12.0,0.,12.0,0.,12.0,0.,12.0
1979-03-10 21:42:27.030 ,7,0,0.,12.0,0.,12.0,0.,12.0,0.,12.0
1979-03-10 21:42:39.030 ,7,0,0.,12.0,0.,12.0,0.,12.0,0.,12.0
1979-03-10 21:42:51.030 ,7,0,0.,12.0,0.,12.0,0.,12.0,0.,12.0
1979-03-10 21:43:03.030 ,7,0,0.,12.0,0.,12.0,0.,12.0,0.,12.0
1979-03-10 21:43:15.030 ,6,0,0.,12.0,0.,12.0,0.,12.0,0.,12.0
1979-03-10 21:43:27.030 ,6,0,0.,12.0,0.,12.0,0.,12.0,0.,12.0
1979-03-10 21:43:39.030 ,5,0,0.,12.0,0.,12.0,0.,12.0,0.,12.0
1979-03-10 21:43:51.030 ,5,0,0.,12.0,0.,12.0,0.,12.0,0.,12.0
1979-03-10 21:44:03.030 ,4,0,0.,12.0,0.,12.0,0.,12.0,0.,12.0
1979-03-10 21:44:15.030 ,4,0,0.,12.0,0.,12.0,0.,12.0,0.,12.0
1979-03-10 21:44:27.030 ,3,0,0.,12.0,0.,12.0,0.,12.0,0.,12.0
1979-03-10 21:44:39.030 ,3,0,0.,12.0,0.,12.0,0.,12.0,0.,12.0
1979-03-10 21:44:51.030 ,2,0,0.,12.0,0.,12.0,0.,12.0,0.,12.0
1979-03-10 21:45:03.030 ,2,0,0.,12.0,0.,12.0,0.,12.0,0.,12.0
1979-03-10 21:45:15.030 ,1,0,0.,12.0,0.,12.0,0.,12.0,0.,12.0
1979-03-10 21:45:27.030 ,1,0,0.,12.0,0.,12.0,0.,12.0,0.,12.0
1979-03-10 21:45:39.030 ,0,0,0.,12.0,0.,12.0,0.,12.0,0.,12.0
1979-03-10 21:45:51.030 ,0,0,0.,12.0,0.,12.0,0.,12.0,0.,12.0
1979-03-10 21:46:03.030 ,0,0,0.,12.0,0.,12.0,0.,12.0,0.,12.0
1979-03-10 21:46:15.030 ,0,0,0.,12.0,0.,12.0,0.,12.0,0.,12.0
1979-03-10 21:46:27.030 ,1,0,0.,12.0,0.,12.0,0.,12.0,0.,12.0
1979-03-10 21:46:39.030 ,1,0,0.,12.0,0.,12.0,0.,12.0,0.,12.0
1979-03-10 21:46:51.030 ,2,0,0.,12.0,0.,12.0,0.,12.0,0.,12.0
1979-03-10 21:47:03.030 ,2,0,0.,12.0,0.,12.0,0.,12.0,0.,12.0
1979-03-10 21:47:15.030 ,3,0,0.,12.0,0.,12.0,0.,12.0,0.,12.0
1979-03-10 21:47:27.030 ,3,0,0.,12.0,0.,12.0,0.,12.0,0.,12.0
1979-03-10 21:47:39.030 ,4,0,0.,12.0,0.,12.0,0.,12.0,0.,12.0
1979-03-10 21:47:51.030 ,4,0,0.,12.0,0.,12.0,0.,12.0,0.,12.0
1979-03-10 21:48:03.030 ,5,0,0.,12.0,0.,12.0,0.,12.0,0.,12.0
1979-03-10 21:48:15.030 ,5,0,0.,12.0,0.,12.0,0.,12.0,0.,12.0
1979-03-10 21:48:27.030 ,6,0,0.,12.0,0.,12.0,0.,12.0,0.,12.0
1979-03-10 21:48:39.030 ,6,0,0.,12.0,0.,12.0,0.,12.0,0.,12.0
1979-03-10 21:48:51.030 ,7,0,0.,12.0,0.,12.0,0.,12.0,0.,12.0
1979-03-10 21:49:03.030 ,7,0,0.,12.0,0.,12.0,0.,12.0,0.,12.0
1979-03-10 21:49:15.030 ,7,0,0.,12.0,0.,12.0,0.,12.0,0.,12.0
1979-03-10 21:49:27.030 ,7,0,0.,12.0,0.,12.0,0.,12.0,0.,12.0
1979-03-10 21:49:39.030 ,6,0,0.,12.0,0.,12.0,0.,12.0,0.,12.0
1979-03-10 21:49:51.030 ,6,0,0.,12.0,0.,12.0,0.,12.0,0.,12.0
1979-03-10 21:50:03.030 ,0,0,0.,12.0,0.,12.0,0.,12.0,0.,12.0
1979-03-10 21:50:15.030 ,0,0,0.,12.0,0.,12.0,0.,12.0,0.,12.0
1979-03-10 21:50:24.630 ,0,0,,0,,0,,0,,0
1979-03-10 21:50:36.630 ,0,0,,0,,0,,0,,0
1979-03-10 21:50:27.030 ,0,0,0.,12.0,0.,12.0,0.,12.0,0.,12.0
1979-03-10 21:50:39.030 ,0,0,0.,12.0,0.,12.0,0.,12.0,0.,12.0
1979-03-10 21:50:51.030 ,3,0,0.,12.0,0.,12.0,0.,12.0,0.,12.0
1979-03-10 21:51:03.030 ,3,0,0.,12.0,0.,12.0,0.,12.0,0.,12.0
1979-03-10 21:51:15.030 ,2,0,0.,12.0,0.,12.0,0.,12.0,0.,12.0
1979-03-10 21:51:27.030 ,2,0,0.,12.0,0.,12.0,0.,12.0,0.,12.0
1979-03-10 21:51:39.030 ,1,0,0.,12.0,0.,12.0,0.,12.0,0.,12.0
1979-03-10 21:51:51.030 ,1,0,0.,12.0,0.,12.0,0.,12.0,0.,12.0
1979-03-10 21:52:03.030 ,0,0,0.,12.0,0.,12.0,0.,12.0,0.,12.0
1979-03-10 21:52:15.030 ,0,0,0.,12.0,0.,12.0,0.,12.0,0.,12.0
1979-03-10 21:52:27.030 ,0,0,0.,12.0,0.,12.0,0.,12.0,0.,12.0
1979-03-10 21:52:39.030 ,0,0,0.,12.0,0.,12.0,0.,12.0,0.,12.0
1979-03-10 21:52:51.030 ,1,0,0.,12.0,0.,12.0,0.,12.0,0.,12.0
1979-03-10 21:53:03.030 ,1,0,0.,12.0,0.,12.0,0.,12.0,0.,12.0
1979-03-10 21:53:15.030 ,2,0,0.,12.0,0.,12.0,0.,12.0,0.,12.0
1979-03-10 21:53:27.030 ,2,0,0.,12.0,0.,12.0,0.,12.0,0.,12.0
1979-03-10 21:53:39.030 ,3,0,0.,12.0,0.,12.0,0.,12.0,0.,12.0
1979-03-10 21:53:51.030 ,3,0,0.,12.0,0.,12.0,0.,12.0,0.,12.0
1979-03-10 21:54:03.030 ,4,0,0.,12.0,0.,12.0,0.,12.0,0.,12.0
1979-03-10 21:54:15.030 ,4,0,0.,12.0,0.,12.0,0.,12.0,0.,12.0
1979-03-10 21:54:27.030 ,5,0,0.,12.0,0.,12.0,0.,12.0,0.,12.0
1979-03-10 21:54:39.030 ,5,0,0.,12.0,0.,12.0,0.,12.0,0.,12.0
1979-03-10 21:54:51.030 ,6,0,0.,12.0,0.,12.0,0.,12.0,0.,12.0
1979-03-10 21:55:03.030 ,6,0,0.,12.0,0.,12.0,0.,12.0,0.,12.0
1979-03-10 21:55:15.030 ,7,0,0.,12.0,0.,12.0,0.,12.0,0.,12.0
1979-03-10 21:55:27.030 ,7,0,0.,12.0,0.,12.0,0.,12.0,0.,12.0
1979-03-10 21:55:39.030 ,7,0,0.,12.0,0.,12.0,0.,12.0,0.,12.0
1979-03-10 21:55:51.030 ,7,0,0.,12.0,0.,12.0,0.,12.0,0.,12.0
1979-03-10 21:56:03.030 ,6,0,0.,12.0,0.,12.0,0.,12.0,0.,12.0
1979-03-10 21:56:15.030 ,6,0,0.,12.0,0.,12.0,0.,12.0,0.,12.0
1979-03-10 21:56:27.030 ,5,0,0.,12.0,0.,12.0,0.,12.0,0.,12.0
1979-03-10 21:56:39.030 ,5,0,0.,12.0,0.,12.0,0.,12.0,0.,12.0
1979-03-10 21:56:51.030 ,4,0,0.,12.0,0.,12.0,0.,12.0,0.,12.0
1979-03-10 21:57:03.030 ,4,0,0.,12.0,0.,12.0,0.,12.0,0.,12.0
1979-03-10 21:57:15.030 ,3,0,0.,12.0,0.,12.0,0.,12.0,0.,12.0
1979-03-10 21:57:27.030 ,3,0,0.,12.0,0.,12.0,0.,12.0,0.,12.0
1979-03-10 21:57:39.030 ,2,0,0.,12.0,0.,12.0,0.,12.0,0.,12.0
1979-03-10 21:57:51.030 ,2,0,0.,12.0,0.,12.0,0.,12.0,0.,12.0
1979-03-10 21:58:03.030 ,1,0,0.,12.0,0.,12.0,0.,12.0,0.,12.0
1979-03-10 21:58:15.030 ,1,0,0.,12.0,0.,12.0,0.,12.0,0.,12.0
1979-03-10 21:58:27.030 ,0,0,0.,12.0,0.,12.0,0.,12.0,0.,12.0
1979-03-10 21:58:39.030 ,0,0,0.,12.0,0.,12.0,0.,12.0,0.,12.0
1979-03-10 21:58:51.030 ,0,0,0.,12.0,0.,12.0,0.,12.0,0.,12.0
1979-03-10 21:59:03.030 ,0,0,0.,12.0,0.,12.0,0.,12.0,0.,12.0
1979-03-10 21:59:15.030 ,1,0,0.,12.0,0.,12.0,0.,12.0,0.,12.0
1979-03-10 21:59:27.030 ,1,0,0.,12.0,0.,12.0,0.,12.0,0.,12.0
1979-03-10 21:59:39.030 ,2,0,0.,12.0,0.,12.0,0.,12.0,0.,12.0
1979-03-10 21:59:51.030 ,2,0,0.,12.0,0.,12.0,0.,12.0,0.,12.0
1979-03-10 22:00:03.030 ,3,0,0.,12.0,0.,12.0,0.,12.0,0.,12.0
1979-03-10 22:00:15.030 ,3,0,0.,12.0,0.,12.0,0.,12.0,0.,12.0
1979-03-10 22:00:27.030 ,4,0,0.,12.0,0.,12.0,0.,12.0,0.,12.0
1979-03-10 22:00:39.030 ,4,0,0.,12.0,0.,12.0,0.,12.0,0.,12.0
1979-03-10 22:00:51.030 ,5,0,0.,12.0,0.,12.0,0.,12.0,0.,12.0
1979-03-10 22:01:03.030 ,5,0,0.,12.0,0.,12.0,0.,12.0,0.,12.0
1979-03-10 22:01:15.030 ,6,0,0.,12.0,0.,12.0,0.,12.0,0.,12.0
1979-03-10 22:01:27.030 ,6,0,0.,12.0,0.,12.0,0.,12.0,0.,12.0
1979-03-10 22:01:39.030 ,7,0,0.,12.0,0.,12.0,0.,12.0,0.,12.0
1979-03-10 22:01:51.030 ,7,0,0.,12.0,0.,12.0,0.,12.0,0.,12.0
1979-03-10 22:02:03.030 ,7,0,0.,12.0,0.,12.0,0.,12.0,0.,12.0
1979-03-10 22:02:15.030 ,7,0,0.,12.0,0.,12.0,0.,12.0,0.,12.0
1979-03-10 22:02:27.030 ,6,0,0.,12.0,0.,12.0,0.,12.0,0.,12.0
1979-03-10 22:02:39.030 ,6,0,0.,12.0,0.,12.0,0.,12.0,0.,12.0
1979-03-10 22:02:51.030 ,5,0,0.,12.0,0.,12.0,0.,12.0,0.,12.0
1979-03-10 22:03:03.030 ,5,0,0.,12.0,0.,12.0,0.,12.0,0.,12.0
1979-03-10 22:03:15.030 ,4,0,0.,12.0,0.,12.0,0.,12.0,0.,12.0
1979-03-10 22:03:27.030 ,4,0,0.,12.0,0.,12.0,0.,12.0,0.,12.0
1979-03-10 22:03:39.030 ,3,0,0.,12.0,0.,12.0,0.,12.0,0.,12.0
1979-03-10 22:03:51.030 ,3,0,0.,12.0,0.,12.0,0.,12.0,0.,12.0
1979-03-10 22:04:03.030 ,2,0,0.,12.0,0.,12.0,0.,12.0,0.,12.0
1979-03-10 22:04:15.030 ,2,0,0.,12.0,0.,12.0,0.,12.0,0.,12.0
1979-03-10 22:04:27.030 ,1,0,0.,12.0,0.,12.0,0.,12.0,0.,12.0
1979-03-10 22:04:39.030 ,1,0,0.,12.0,0.,12.0,0.,12.0,0.,12.0
1979-03-10 22:04:51.030 ,0,0,0.,12.0,0.,12.0,0.,12.0,0.,12.0
1979-03-10 22:05:03.030 ,0,0,0.,12.0,0.,12.0,0.,12.0,0.,12.0
1979-03-10 22:05:15.030 ,0,0,0.,12.0,0.,12.0,0.,12.0,0.,12.0
1979-03-10 22:05:27.030 ,0,0,0.,12.0,0.,12.0,0.,12.0,0.,12.0
1979-03-10 22:05:39.030 ,1,0,0.,12.0,0.,12.0,0.,12.0,0.,12.0
1979-03-10 22:05:51.030 ,1,0,0.,12.0,0.,12.0,0.,12.0,0.,12.0
1979-03-10 22:06:03.030 ,2,0,0.,12.0,0.,12.0,0.,12.0,0.,12.0
1979-03-10 22:06:15.030 ,2,0,0.,12.0,0.,12.0,0.,12.0,0.,12.0
1979-03-10 22:06:27.030 ,3,0,0.,12.0,0.,12.0,0.,12.0,0.,12.0
1979-03-10 22:06:39.030 ,3,0,0.,12.0,0.,12.0,0.,12.0,0.,12.0
1979-03-10 22:06:51.030 ,4,0,0.,12.0,0.,12.0,0.,12.0,0.,12.0
1979-03-10 22:07:03.030 ,4,0,0.,12.0,0.,12.0,0.,12.0,0.,12.0
1979-03-10 22:07:15.030 ,5,0,0.,12.0,0.,12.0,0.,12.0,0.,12.0
1979-03-10 22:07:27.030 ,5,0,0.,12.0,0.,12.0,0.,12.0,0.,12.0
1979-03-10 22:07:39.030 ,6,0,0.,12.0,0.,12.0,0.,12.0,0.,12.0
1979-03-10 22:07:51.030 ,6,0,0.,12.0,0.,12.0,0.,12.0,0.,12.0
1979-03-10 22:08:03.030 ,7,0,0.,12.0,0.,12.0,0.,12.0,0.,12.0
1979-03-10 22:08:15.030 ,7,0,0.,12.0,0.,12.0,0.,12.0,0.,12.0
1979-03-10 22:08:27.030 ,7,0,0.,12.0,0.,12.0,0.,12.0,0.,12.0
1979-03-10 22:08:39.030 ,7,0,0.,12.0,0.,12.0,0.,12.0,0.,12.0
1979-03-10 22:08:51.030 ,6,0,0.,12.0,0.,12.0,0.,12.0,0.,12.0
1979-03-10 22:09:03.030 ,6,0,0.,12.0,0.,12.0,0.,12.0,0.,12.0
1979-03-10 22:09:15.030 ,5,0,0.,12.0,0.,12.0,0.,12.0,0.,12.0
1979-03-10 22:09:27.030 ,5,0,0.,12.0,0.,12.0,0.,12.0,0.,12.0
1979-03-10 22:09:39.030 ,4,0,0.,12.0,0.,12.0,0.,12.0,0.,12.0
1979-03-10 22:09:51.030 ,4,0,0.,12.0,0.,12.0,0.,12.0,0.,12.0
1979-03-10 22:10:03.030 ,3,0,0.,12.0,0.,12.0,0.,12.0,0.,12.0
1979-03-10 22:10:15.030 ,3,0,0.,12.0,0.,12.0,0.,12.0,0.,12.0
1979-03-10 22:10:27.030 ,2,0,0.,12.0,0.,12.0,0.,12.0,0.,12.0
1979-03-10 22:10:39.030 ,2,0,0.,12.0,0.,12.0,0.,12.0,0.,12.0
1979-03-10 22:10:51.030 ,1,0,0.,12.0,0.,12.0,0.,12.0,0.,12.0
1979-03-10 22:11:03.030 ,1,0,0.,12.0,0.,12.0,0.,12.0,0.,12.0
1979-03-10 22:11:15.030 ,0,0,0.,12.0,0.,12.0,0.,12.0,0.,12.0
1979-03-10 22:11:27.030 ,0,0,0.,12.0,0.,12.0,0.,12.0,0.,12.0
1979-03-10 22:11:39.030 ,0,0,0.,12.0,0.,12.0,0.,12.0,0.,12.0
1979-03-10 22:11:51.030 ,0,0,0.,12.0,0.,12.0,0.,12.0,0.,12.0
1979-03-10 22:12:03.030 ,1,0,0.,12.0,0.,12.0,0.,12.0,0.,12.0
1979-03-10 22:12:15.030 ,1,0,0.,12.0,0.,12.0,0.,12.0,0.,12.0
1979-03-10 22:12:27.030 ,2,0,0.,12.0,0.,12.0,0.,12.0,0.,12.0
1979-03-10 22:12:39.030 ,2,0,0.,12.0,0.,12.0,0.,12.0,0.,12.0
1979-03-10 22:12:51.030 ,3,0,0.,12.0,0.,12.0,0.,12.0,0.,12.0
1979-03-10 22:13:03.030 ,3,0,0.,12.0,0.,12.0,0.,12.0,0.,12.0
1979-03-10 22:13:15.030 ,4,0,0.,12.0,0.,12.0,0.,12.0,0.,12.0
1979-03-10 22:13:27.030 ,4,0,0.,12.0,0.,12.0,0.,12.0,0.,12.0
1979-03-10 22:13:39.030 ,5,0,0.,12.0,0.,12.0,0.,12.0,0.,12.0
1979-03-10 22:13:51.030 ,5,0,0.,12.0,0.,12.0,0.,12.0,0.,12.0
1979-03-10 22:14:03.030 ,6,0,0.,12.0,0.,12.0,0.,12.0,0.,12.0
1979-03-10 22:14:15.030 ,6,0,0.,12.0,0.,12.0,0.,12.0,0.,12.0
1979-03-10 22:14:27.030 ,7,0,0.,12.0,0.,12.0,0.,12.0,0.,12.0
1979-03-10 22:14:39.030 ,7,0,0.,12.0,0.,12.0,0.,12.0,0.,12.0
1979-03-10 22:14:51.030 ,7,0,0.,12.0,0.,12.0,0.,12.0,0.,12.0
1979-03-10 22:15:03.030 ,7,0,0.,12.0,0.,12.0,0.,12.0,0.,12.0
1979-03-10 22:15:15.030 ,6,0,0.,12.0,0.,12.0,0.,12.0,0.,12.0
1979-03-10 22:15:27.030 ,6,0,0.,12.0,0.,12.0,0.,12.0,0.,12.0
1979-03-10 22:15:39.030 ,5,0,0.,12.0,0.,12.0,0.,12.0,0.,12.0
1979-03-10 22:15:51.030 ,5,0,0.,12.0,0.,12.0,0.,12.0,0.,12.0
1979-03-10 22:16:03.030 ,4,0,0.,12.0,0.,12.0,0.,12.0,0.,12.0
1979-03-10 22:16:15.030 ,4,0,0.,12.0,0.,12.0,0.,12.0,0.,12.0
1979-03-10 22:16:27.030 ,3,0,0.,12.0,0.,12.0,0.,12.0,0.,12.0
1979-03-10 22:16:39.030 ,3,0,0.,12.0,0.,12.0,0.,12.0,0.,12.0
1979-03-10 22:16:51.030 ,2,0,0.,12.0,0.,12.0,0.,12.0,0.,12.0
1979-03-10 22:17:03.030 ,2,0,0.,12.0,0.,12.0,0.,12.0,0.,12.0